• In Spain
  • List of Countries
  • For 7 days
  • Water Temperature
  • Satellite Maps
  • Weather Map
  • Weather Widgets
  • user-avatar
    Login

    Hourly Weather Zakromskiy Hutor

    Today, 20 July, Friday

    Time Temperature Precipitation Wind Pressure Humidity
    00:00 +19°C° 0 mm 1 mps 733 mmHg 95%
    01:00 +17°C° 0 mm 0 mps 733 mmHg 95%
    02:00 +17°C° 0 mm 0 mps 733 mmHg 95%
    03:00 +17°C° 0 mm 0 mps 733 mmHg 96%
    04:00 +17°C° 0 mm 0 mps 733 mmHg 96%
    05:00 +18°C° 0 mm 0 mps 733 mmHg 96%
    06:00 +21°C° 0 mm 1 mps 733 mmHg 92%
    07:00 +22°C° 0 mm 1 mps 734 mmHg 89%
    08:00 +23°C° 0 mm 1 mps 734 mmHg 85%
    09:00 +24°C° 0.2 mm 1 mps 734 mmHg 81%
    10:00 +25°C° 0.2 mm 1 mps 734 mmHg 77%
    11:00 +26°C° 0.2 mm 2 mps 734 mmHg 73%
    12:00 +26°C° 0.1 mm 2 mps 734 mmHg 71%
    13:00 +27°C° 0.1 mm 2 mps 734 mmHg 69%
    14:00 +27°C° 0.1 mm 2 mps 734 mmHg 67%
    15:00 +27°C° 0 mm 2 mps 734 mmHg 69%
    16:00 +27°C° 0 mm 2 mps 734 mmHg 71%
    17:00 +27°C° 0 mm 2 mps 734 mmHg 73%
    18:00 +25°C° 0 mm 1 mps 734 mmHg 78%
    19:00 +24°C° 0 mm 1 mps 734 mmHg 82%
    20:00 +22°C° 0 mm 1 mps 734 mmHg 86%
    21:00 +22°C° 0.1 mm 1 mps 734 mmHg 87%
    22:00 +21°C° 0.1 mm 1 mps 734 mmHg 88%
    23:00 +21°C° 0.1 mm 1 mps 734 mmHg 89%

    Tomorrow, 21 July, Saturday

    Time Temperature Precipitation Wind Pressure Humidity
    00:00 +19°C° 0.1 mm 0 mps 734 mmHg 90%
    01:00 +19°C° 0.1 mm 0 mps 734 mmHg 90%
    02:00 +18°C° 0.1 mm 0 mps 734 mmHg 90%
    03:00 +18°C° 0.1 mm 0 mps 734 mmHg 91%
    04:00 +19°C° 0.1 mm 0 mps 734 mmHg 91%
    05:00 +19°C° 0.1 mm 0 mps 734 mmHg 91%
    06:00 +20°C° 0.5 mm 0 mps 735 mmHg 87%
    07:00 +21°C° 0.5 mm 0 mps 735 mmHg 84%
    08:00 +22°C° 0.5 mm 0 mps 735 mmHg 80%
    09:00 +25°C° 0.1 mm 1 mps 735 mmHg 76%
    10:00 +26°C° 0.1 mm 1 mps 735 mmHg 71%
    11:00 +27°C° 0.1 mm 1 mps 735 mmHg 67%
    12:00 +28°C° 0 mm 1 mps 735 mmHg 64%
    13:00 +28°C° 0 mm 1 mps 735 mmHg 62%
    14:00 +29°C° 0 mm 1 mps 735 mmHg 59%
    15:00 +29°C° 0.2 mm 1 mps 734 mmHg 61%
    16:00 +28°C° 0.2 mm 1 mps 734 mmHg 64%
    17:00 +28°C° 0.2 mm 1 mps 734 mmHg 66%
    18:00 +27°C° 0.1 mm 1 mps 734 mmHg 71%
    19:00 +25°C° 0.1 mm 1 mps 734 mmHg 77%
    20:00 +23°C° 0.1 mm 1 mps 734 mmHg 82%
    21:00 +23°C° 0.1 mm 1 mps 734 mmHg 84%
    22:00 +22°C° 0.1 mm 1 mps 734 mmHg 86%
    23:00 +22°C° 0.1 mm 1 mps 734 mmHg 88%

    Day after tomorrow, 22 July, Sunday

    Time Temperature Precipitation Wind Pressure Humidity
    00:00 +21°C° 0 mm 1 mps 734 mmHg 88%
    01:00 +21°C° 0 mm 1 mps 734 mmHg 89%
    02:00 +19°C° 0 mm 0 mps 734 mmHg 89%
    03:00 +19°C° 0.1 mm 0 mps 734 mmHg 90%
    04:00 +19°C° 0.1 mm 0 mps 734 mmHg 90%
    05:00 +19°C° 0.1 mm 0 mps 734 mmHg 90%
    06:00 +23°C° 0.1 mm 1 mps 734 mmHg 86%
    07:00 +24°C° 0.1 mm 1 mps 735 mmHg 82%
    08:00 +25°C° 0.1 mm 1 mps 735 mmHg 78%
    09:00 +26°C° 0.6 mm 1 mps 735 mmHg 74%
    10:00 +27°C° 0.6 mm 2 mps 735 mmHg 71%
    11:00 +28°C° 0.6 mm 2 mps 735 mmHg 68%
    12:00 +28°C° 1.2 mm 2 mps 734 mmHg 68%
    13:00 +28°C° 1.2 mm 2 mps 734 mmHg 69%
    14:00 +28°C° 1.2 mm 2 mps 734 mmHg 69%
    15:00 +28°C° 1 mm 2 mps 734 mmHg 72%
    16:00 +27°C° 1 mm 1 mps 734 mmHg 74%
    17:00 +27°C° 1 mm 1 mps 734 mmHg 76%
    18:00 +26°C° 0.6 mm 1 mps 734 mmHg 80%
    19:00 +24°C° 0.6 mm 1 mps 734 mmHg 85%
    20:00 +23°C° 0.6 mm 2 mps 734 mmHg 89%
    21:00 +23°C° 0.4 mm 2 mps 734 mmHg 91%
    22:00 +21°C° 0.4 mm 2 mps 734 mmHg 92%
    23:00 +20°C° 0.4 mm 2 mps 734 mmHg 94%

    23 July, Monday

    Time Temperature Precipitation Wind Pressure Humidity
    00:00 +20°C° 0.2 mm 2 mps 734 mmHg 95%
    01:00 +20°C° 0.2 mm 2 mps 734 mmHg 96%
    02:00 +19°C° 0.2 mm 2 mps 734 mmHg 97%
    03:00 +19°C° 0.1 mm 2 mps 734 mmHg 97%
    04:00 +19°C° 0.1 mm 2 mps 734 mmHg 97%
    05:00 +19°C° 0.1 mm 2 mps 734 mmHg 98%
    06:00 +20°C° 0 mm 3 mps 734 mmHg 96%
    07:00 +20°C° 0 mm 3 mps 735 mmHg 94%
    08:00 +21°C° 0 mm 3 mps 735 mmHg 92%
    09:00 +21°C° 0 mm 3 mps 735 mmHg 91%
    10:00 +21°C° 0 mm 3 mps 735 mmHg 90%
    11:00 +21°C° 0 mm 3 mps 735 mmHg 89%
    12:00 +22°C° 0.1 mm 3 mps 736 mmHg 88%
    13:00 +22°C° 0.1 mm 3 mps 736 mmHg 88%
    14:00 +22°C° 0.1 mm 3 mps 736 mmHg 87%
    15:00 +22°C° 0 mm 3 mps 736 mmHg 86%
    16:00 +22°C° 0 mm 3 mps 736 mmHg 85%
    17:00 +22°C° 0 mm 3 mps 736 mmHg 84%
    18:00 +21°C° 0 mm 2 mps 736 mmHg 86%
    19:00 +21°C° 0 mm 2 mps 736 mmHg 89%
    20:00 +20°C° 0 mm 2 mps 737 mmHg 91%
    21:00 +19°C° 0 mm 2 mps 737 mmHg 92%
    22:00 +19°C° 0 mm 2 mps 737 mmHg 93%
    23:00 +18°C° 0 mm 2 mps 737 mmHg 95%

    24 July, Tuesday

    Time Temperature Precipitation Wind Pressure Humidity
    00:00 +18°C° 0 mm 2 mps 737 mmHg 95%
    01:00 +18°C° 0 mm 2 mps 737 mmHg 96%
    02:00 +18°C° 0 mm 2 mps 737 mmHg 96%
    03:00 +18°C° 0 mm 2 mps 737 mmHg 96%
    04:00 +18°C° 0 mm 2 mps 738 mmHg 97%
    05:00 +18°C° 0 mm 2 mps 738 mmHg 97%
    06:00 +19°C° 0 mm 2 mps 738 mmHg 93%
    07:00 +21°C° 0 mm 3 mps 738 mmHg 89%
    08:00 +22°C° 0 mm 3 mps 739 mmHg 85%
    09:00 +24°C° 0 mm 3 mps 739 mmHg 82%
    10:00 +24°C° 0 mm 3 mps 739 mmHg 78%
    11:00 +25°C° 0 mm 3 mps 739 mmHg 75%
    12:00 +26°C° 0.1 mm 3 mps 739 mmHg 72%
    13:00 +26°C° 0.1 mm 2 mps 739 mmHg 70%
    14:00 +27°C° 0.1 mm 2 mps 739 mmHg 67%
    15:00 +27°C° 0.1 mm 2 mps 739 mmHg 68%
    16:00 +27°C° 0.1 mm 1 mps 739 mmHg 68%
    17:00 +27°C° 0.1 mm 1 mps 739 mmHg 69%
    18:00 +25°C° 0.2 mm 1 mps 739 mmHg 75%
    19:00 +24°C° 0.2 mm 1 mps 739 mmHg 80%
    20:00 +22°C° 0.2 mm 1 mps 740 mmHg 86%
    21:00 +22°C° 0 mm 1 mps 739 mmHg 87%
    22:00 +21°C° 0 mm 1 mps 739 mmHg 89%
    23:00 +21°C° 0 mm 1 mps 739 mmHg 90%

    25 July, Wednesday

    Time Temperature Precipitation Wind Pressure Humidity
    00:00 +21°C° 0.1 mm 1 mps 740 mmHg 91%
    01:00 +20°C° 0.1 mm 1 mps 740 mmHg 92%
    02:00 +20°C° 0.1 mm 1 mps 740 mmHg 93%
    03:00 +19°C° 0.5 mm 2 mps 740 mmHg 94%
    04:00 +19°C° 0.5 mm 2 mps 740 mmHg 94%
    05:00 +19°C° 0.5 mm 3 mps 740 mmHg 94%
    06:00 +20°C° 0.2 mm 3 mps 740 mmHg 92%
    07:00 +20°C° 0.2 mm 4 mps 741 mmHg 89%
    08:00 +21°C° 0.2 mm 4 mps 741 mmHg 87%
    09:00 +21°C° 0.4 mm 4 mps 741 mmHg 86%
    10:00 +21°C° 0.4 mm 4 mps 740 mmHg 85%
    11:00 +21°C° 0.4 mm 4 mps 740 mmHg 85%
    12:00 +21°C° 0.7 mm 3 mps 740 mmHg 86%
    13:00 +20°C° 0.7 mm 3 mps 740 mmHg 88%
    14:00 +20°C° 0.7 mm 3 mps 740 mmHg 89%
    15:00 +20°C° 0.7 mm 2 mps 740 mmHg 91%
    16:00 +19°C° 0.7 mm 2 mps 740 mmHg 92%
    17:00 +20°C° 0.7 mm 1 mps 740 mmHg 94%
    18:00 +19°C° 0.2 mm 1 mps 740 mmHg 94%
    19:00 +19°C° 0.2 mm 1 mps 740 mmHg 95%
    20:00 +19°C° 0.2 mm 1 mps 740 mmHg 96%
    21:00 +19°C° 0.1 mm 1 mps 740 mmHg 95%
    22:00 +19°C° 0.1 mm 1 mps 741 mmHg 95%
    23:00 +19°C° 0.1 mm 1 mps 741 mmHg 94%
    Show more